This demonstration page uses our WeatherBlox Daily Observations layout. Learn more.

Left ArrowRight Arrow

34.02893, -84.19858

Hourly Observations for June 26, 2020

Temp ( °F °C ) Dew Point ( °F °C ) Humidity (%) Winds ( mph kmh ) Pressure ( in mb ) Visibility ( mi km ) Precip ( " mm )
12:53 am 00:53 Clear 73 22.8 71 21.7 94 94 SW 6 9 30.12 1020 10 16 0.00 0.00
1:53 am 01:53 Cloudy 71 21.7 67 19.4 87 87 W 8 13 30.12 1020 10 16 0.00 0.00
2:53 am 02:53 Mostly Cloudy 70 21.1 66 18.9 87 87 W 6 9 30.12 1020 10 16 0.00 0.00
3:53 am 03:53 Clear 68 20 66 18.9 93 93 WSW 5 7 30.11 1020 10 16 0.00 0.00
4:53 am 04:53 Clear 67 19.4 66 18.9 97 97 WSW 5 7 30.12 1020 10 16 0.00 0.00
5:53 am 05:53 Clear 67 19.4 66 18.9 97 97 W 3 6 30.14 1021 10 16 0.00 0.00
6:53 am 06:53 Mostly Sunny 68 20 66 18.9 93 93 WSW 3 6 30.15 1021 10 16 0.00 0.00
7:53 am 07:53 Sunny 70 21.1 66 18.9 87 87 W 6 9 30.18 1022 10 16 0.00 0.00
8:53 am 08:53 Sunny 73 22.8 66 18.9 79 79 WSW 9 15 30.19 1022 10 16 0.00 0.00
9:53 am 09:53 Sunny 76 24.4 67 19.4 74 74 WNW 8 13 30.19 1022 10 16 0.00 0.00
10:53 am 10:53 Sunny 78 25.6 68 20 71 71 NW 6 9 30.18 1022 10 16 0.00 0.00
11:53 am 11:53 Sunny 81 27.2 68 20 65 65 W 6 9 30.16 1021 10 16 0.00 0.00
12:53 pm 12:53 Sunny 82 27.8 67 19.4 60 60 WNW 13 20 30.16 1022 10 16 0.00 0.00
1:53 pm 13:53 Mostly Cloudy 82 27.8 68 20 63 63 NW 9 15 30.15 1021 10 16 0.00 0.00
2:53 pm 14:53 Cloudy 81 27.2 67 19.4 62 62 WNW 15 24 30.17 1022 10 16 0.00 0.00
3:53 pm 15:53 Cloudy with Light Rain 77 25 69 20.6 77 77 W 12 19 30.18 1022 8 13 0.00 0.00
4:53 pm 16:53 Mostly Cloudy 77 25 66 18.9 69 69 WNW 10 17 30.16 1022 9 14 0.00 0.00
5:53 pm 17:53 Sunny 78 25.6 67 19.4 69 69 W 9 15 30.15 1021 9 14 0.00 0.00
6:53 pm 18:53 Mostly Sunny 79 26.1 67 19.4 67 67 W 9 15 30.15 1021 9 14 0.00 0.00
7:53 pm 19:53 Mostly Sunny 75 23.9 65 18.3 71 71 W 13 20 30.14 1021 9 14 0.00 0.00
8:53 pm 20:53 Mostly Clear 74 23.3 64 17.8 71 71 W 15 24 30.14 1021 9 14 0.00 0.00
9:53 pm 21:53 Clear 73 22.8 61 16.1 66 66 W 8 13 30.13 1020 9 14 0.00 0.00
10:53 pm 22:53 Clear 70 21.1 61 16.1 73 73 SW 6 9 30.14 1021 9 14 0.00 0.00
11:53 pm 23:53 Clear 70 21.1 61 16.1 73 73 WSW 7 11 30.13 1020 9 14 0.00 0.00

Powered by AerisWeather